User: anonymous   Login
Location: Newark
(41.7300°N, 13.7500°E)
Time: 11:28:58
(UTC+00:00)
Language:

PCSat - Orbit

View from above orbital plane
View from above orbital plane
View from above satellite
View from above satellite

Ground track
Ground track

The orbit data is extracted from the following two-line orbital elements,

1 26931U 01043C   21163.07433327 -.00000023  00000-0  23029-4 0  9997
2 26931  67.0516 294.3186 0006470 261.1992  98.8377 14.30621421 28587
Epoch (UTC): 12 June 2021 01:47:02
Eccentricity: 0.0006470
inclination: 67.0516°
perigee height: 785 km
apogee height: 794 km
right ascension of ascending node: 294.3186°
argument of perigee: 261.1992°
revolutions per day: 14.30621421
mean anomaly at epoch: 98.8377°
orbit number at epoch: 2858

The dashed part of the orbit path shows where the satellite is in the earth's shadow,  

DLR